Regional Weather Roundup
Issued by NWS Goodland, KS

Home | Current Version | Previous Version | Text Only | Print | Product List | Glossary Off
Versions: 1 2 3 4 5 6 7 8 9 10 11 12 13 14 15 16 17 18 19 20 21 22 23 24 25 26 27 28 29 30 31 32 33 34 35 36 37 38 39 40 41 42 43 44 45 46 47 48 49 50

000
ASUS43 KGLD 210959
RWRGLD

GOODLAND FORECAST AREA HOURLY WEATHER ROUNDUP
NATIONAL WEATHER SERVICE GOODLAND KS
300 AM MST SUN DEC 21 2014

...OFFICIAL OBSERVATIONS...

CITY           SKY/WX    TMP DP  RH WIND       PRES   REMARKS
GOODLAND KS    MOCLDY    34  29  82 W8        29.86F
HILL CITY KS   PTCLDY    28  27  96 SW6       29.90F FOG
IMPERIAL NEB   CLOUDY    34  26  72 NW7       29.83F
MCCOOK NEB     CLOUDY    32  27  81 W3        29.85F
AKRON CO       PTCLDY    23  19  85 W10       29.83F WCI  12
BURLINGTON CO  MOCLDY    32  27  81 SW8       29.84F
LIMON CO       CLEAR     26  20  77 NW3       29.86F
$$

...UNOFFICIAL OBSERVATIONS...

CITY           SKY/WX    TMP DP  RH WIND       PRES   REMARKS
COLBY KS       PTCLDY    28  28 100 S6        29.87F
GOVE KS          N/A     25  32 100 MISG        N/A
NORTON KS      CLEAR     34  28  80 SW6       29.86F
TRIBUNE KS     PTCLDY    30  30 100 CALM      29.88F
KIT CARSON CO    N/A     30  26  86 MISG        N/A
YUMA CO          N/A     24  19  82 W10         N/A  WCI  14
$$



USA.gov is the U.S. government's official web portal to all federal, state and local government web resources and services.